Tracking 28052 objects as of 21-Sep-2023
HD Live streaming from Space Station
objects crossing your sky now

SL-8 R/B

Track SL-8 R/B now!
10-day predictions


NORAD ID: 9613
Int'l Code: 1976-122B
Perigee: 957.5 km
Apogee: 1,001.9 km
Inclination: 82.9 °
Period: 104.5 minutes
Semi major axis: 7350 km
RCS: 4.5019 m2 (large)
Launch date: December 15, 1976
Source: Commonwealth of Independent States (former USSR) (CIS)
Launch site: PLESETSK MISSILE AND SPACE COMPLEX (PKMTR)

Note: This is a ROCKET BODY
Your satellite tracking list
Your tracking list is empty




NASA's NSSDC Master Catalog

Two Line Element Set (TLE):
1 09613U 76122B   23263.91129060  .00000020  00000-0  50587-5 0  9993
2 09613  82.9497 253.7582 0030211   2.9392 357.1937 13.77570092349882
Source of the keplerian elements: AFSPC